Location: Aulnoy
(48.8410°N, 3.0967°E)
Time: 06:03:08
(UTC+00:00)

ISS - Visible Passes

Search period start: 26 February 2024 00:00
Search period end: 07 March 2024 00:00
Orbit: 414 x 422 km, 51.6° (Epoch: 26 February)

Date Brightness Start Highest point End Pass type
(mag) Time Alt. Az. Time Alt. Az. Time Alt. Az.
26 Feb -2.7 04:20:09 45° NE 04:20:09 45° NE 04:22:43 10° ENE visible
26 Feb -3.3 05:53:05 10° WNW 05:56:23 53° N 05:59:44 10° E visible
27 Feb -0.6 03:34:09 16° ENE 03:34:09 16° ENE 03:34:53 10° ENE visible
27 Feb -3.2 05:07:05 29° WNW 05:08:30 50° N 05:11:50 10° ENE visible
28 Feb -2.9 04:21:03 46° NNE 04:21:03 46° NNE 04:23:54 10° ENE visible
28 Feb -3.6 05:54:13 10° WNW 05:57:37 72° NNE 06:01:01 10° ESE visible
29 Feb -0.8 03:34:59 17° ENE 03:34:59 17° ENE 03:35:58 10° ENE visible
29 Feb -3.4 05:07:55 25° WNW 05:09:40 59° N 05:13:02 10° E visible
01 Mar -3.1 04:21:50 52° NNE 04:21:50 52° NNE 04:24:59 10° E visible
01 Mar -3.6 05:55:10 10° WNW 05:58:33 67° SSW 06:01:54 10° ESE visible
02 Mar -1.0 03:35:43 20° ENE 03:35:43 20° ENE 03:36:55 10° ENE visible
02 Mar -3.8 05:08:39 24° WNW 05:10:34 90° NE 05:13:57 10° ESE visible
03 Mar -3.6 04:22:33 70° NNE 04:22:33 70° NNE 04:25:54 10° E visible
04 Mar -1.2 03:36:29 21° E 03:36:29 21° E 03:37:44 10° E visible
04 Mar -3.4 05:09:24 23° W 05:11:09 47° SSW 05:14:24 10° SE visible
05 Mar -3.6 04:23:23 63° SSE 04:23:23 63° SSE 04:26:26 10° ESE visible
06 Mar -1.1 03:37:24 17° ESE 03:37:24 17° ESE 03:38:18 10° ESE visible
06 Mar -2.3 05:10:21 19° WSW 05:11:23 22° SW 05:14:04 10° SSE visible
